This is the latest recevied weather packets stored in our database for station/object W8KHW. If no packets are shown the sender has not sent any weather packets the latest 10 day(s).
| Time | Temp. | Humidity | Pressure | Rain* | Wind** | Luminosity | Snow |
|---|---|---|---|---|---|---|---|
| 1778198080 | 13.33° C | 45% | 1013.7 hPa | 0 mm | - | - | - |
| 1778197580 | 13.33° C | 45% | 1013.9 hPa | 0 mm | - | - | - |
| 1778197079 | 14.44° C | 44% | 1013.6 hPa | 0 mm | - | - | - |
| 1778196579 | 15° C | 42% | 1013.7 hPa | 0 mm | - | - | - |
| 1778196079 | 15° C | 41% | 1013.8 hPa | 0 mm | - | - | - |
| 1778195579 | 14.44° C | 41% | 1013.6 hPa | 0 mm | - | - | - |
| 1778195079 | 14.44° C | 44% | 1013.8 hPa | 0 mm | - | - | - |
| 1778194579 | 14.44° C | 45% | 1013.7 hPa | 0 mm | - | - | - |
| 1778194078 | 13.89° C | 42% | 1013.9 hPa | 0 mm | - | - | - |
| 1778193578 | 14.44° C | 41% | 1013.8 hPa | 0 mm | - | - | - |
| 1778193078 | 15° C | 42% | 1014.1 hPa | 0 mm | - | - | - |
| 1778192578 | 15° C | 41% | 1013.9 hPa | 0 mm | - | - | - |
| 1778192078 | 13.89° C | 44% | 1014.2 hPa | 0 mm | - | - | - |
| 1778191577 | 13.89° C | 42% | 1014.2 hPa | 0 mm | - | - | - |
| 1778191077 | 15° C | 41% | 1013.8 hPa | 0 mm | - | - | - |
| 1778190577 | 15.56° C | 39% | 1013.9 hPa | 0 mm | - | - | - |
| 1778190077 | 15.56° C | 38% | 1013.7 hPa | 0 mm | - | - | - |
| 1778189576 | 14.44° C | 41% | 1013.9 hPa | 0 mm | - | - | - |
| 1778189076 | 14.44° C | 42% | 1013.5 hPa | 0 mm | - | - | - |
| 1778188576 | 14.44° C | 43% | 1013.9 hPa | 0 mm | - | - | - |
| 1778188075 | 15.56° C | 41% | 1013.7 hPa | 0 mm | - | - | - |
| 1778187575 | 15° C | 45% | 1013.8 hPa | 0 mm | - | - | - |
| 1778187075 | 15° C | 41% | 1013.7 hPa | 0 mm | - | - | - |
| 1778186575 | 14.44° C | 45% | 1013.8 hPa | 0 mm | - | - | - |
| 1778186075 | 15.56° C | 44% | 1013.5 hPa | 0 mm | - | - | - |
* Rain latest hour (hover to see other rain measurements)
** Current wind speed in m/s (hover to see current wind gust speed)